Tracking 18843 objects as of 20-November-2017
HD Live streaming from Space Station
objects crossing your sky now

FENGYUN 1C DEB

Track FENGYUN 1C DEB now!
10-day predictions


NORAD ID: 29890
Int'l Code: 1999-025GL
Perigee: 842.6 km
Apogee: 872.3 km
Inclination: 99.5 °
Period: 101.9 minutes
Semi major axis: 7228 km
RCS: 0.052 m2 (small)
Launch date: May 10, 1999
Source: People's Republic of China (PRC)
Launch site: Taiyaun Space Center, China (TSC)

Note: This is SATELLITE DEBRIS
aabbcc
Your satellite tracking list
Your tracking list is empty




NASA's NSSDC Master Catalog

Two Line Element Set (TLE):
1 29890U 99025GL  17323.69126932 +.00001217 +00000-0 +68202-3 0  9999
2 29890 099.4669 215.3605 0020515 018.8013 341.3910 14.12655302557781
Source of the keplerian elements: AFSPC